Regional Weather Roundup
Issued by NWS

Home | Current Version | Previous Version | Graphics & Text | Print | Product List | Glossary On
Versions: 1 2 3 4 5 6 7 8 9 10 11 12 13 14 15 16 17 18 19 20 21 22 23 24 25 26 27
000
ASUS45 KCYS 251310
RWRWY

WYOMING REGIONAL WEATHER ROUNDUP
NATIONAL WEATHER SERVICE CHEYENNE WY
700 AM MDT TUE APR 25 2017

NOTE:  "FAIR" INDICATES FEW OR NO CLOUDS BELOW 12,000 FEET
WITH NO SIGNIFICANT WEATHER AND/OR OBSTRUCTIONS TO VISIBILITY.

WYZ001-251400-
YELLOWSTONE NATIONAL PARK

CITY           SKY/WX    TMP DP  RH WIND       PRES   REMARKS
LK YELLOWSTONE   N/A     27  27 100 CALM      29.67R
W YELLOWSTONE  NOT AVBL

$$
WYZ002>013-054>058-071-098>099-251400-
NORTHERN WYOMING

CITY           SKY/WX    TMP DP  RH WIND       PRES   REMARKS
JACKSON        CLOUDY    34  34 100 S5        29.66R WCI  30
CODY           LGT RAIN  35  33  92 N12       29.68R WCI  27
GREYBULL       CLOUDY    40  32  73 N28G33    29.58R WCI  29
WORLAND        CLOUDY    40  37  89 NW24G33   29.57R WCI  29
SHERIDAN       HVY SNOW  32  32 100 NW8       29.67S VSB 1/4 WCI  25
BUFFALO        NOT AVBL
GILLETTE       LGT SNOW  32  32 100 N18       29.56R WCI  20
HULETT         SNOW      30  28  93 NE13G22   29.64R VSB 1/2 WCI  20
NEWCASTLE      LGT RAIN  37  34  87 SE9G18    29.54R WCI  31

$$
WYZ014>020-022>026-101>103-251400-
CENTRAL WYOMING

CITY           SKY/WX    TMP DP  RH WIND       PRES   REMARKS
BIG PINEY      MOCLDY    27  24  89 CALM      29.67R
PINEDALE       CLOUDY    30  28  93 W5        29.67R WCI  25
DUBOIS         CLOUDY    32  27  80 N12       29.60R WCI  23
LANDER         CLOUDY    35  28  75 CALM      29.58R
RIVERTON       LGT RAIN  38  36  92 N16       29.60R WCI  29
CASPER         LGT SNOW  32  32 100 N15       29.56R VSB 3/4 WCI  22
DOUGLAS        LGT RAIN  36  33  89 NW20G35   29.54R WCI  25

$$
WYZ021-027>030-104>119-251400-
SOUTHERN WYOMING

CITY           SKY/WX    TMP DP  RH WIND       PRES   REMARKS
EVANSTON       FOG       31  31 100 SW9       29.71R VSB 1/2 WCI  23
KEMMERER         N/A     28  27  93 SW7       29.69S WCI  21
FORT BRIDGER   CLOUDY    33  33 100 W12       29.73R WCI  24
ROCK SPRINGS   FAIR      32  28  85 W22       29.67R WCI  19
DIXON            N/A     32  28  85 CALM      29.71S
RAWLINS        MOCLDY    33  25  72 SW20      29.64F WCI  21
SARATOGA       FAIR      32  25  74 SW14G21   29.66F WCI  22
LARAMIE        FAIR      31  24  75 W16       29.59S WCI  20
CHEYENNE       FAIR      38  29  70 W9        29.56R WCI  31
TORRINGTON     FAIR      42  35  76 W5        29.53S
PINE BLUFFS    FAIR      36  34  93 W5        29.58R WCI  32

$$




USA.gov is the U.S. government's official web portal to all federal, state and local government web resources and services.